QPF
0.01 0.01 0.01 0.01 0.02 0.02 0.01 0.00 0.00 0.00 0.01 0.01 0.01 0.01 0.00 0.00 0.01 0.01 0.01 0.01 0.00 0.00 0.00 0.00 0.01 0.01 0.03 0.05 0.09 0.11 0.12 0.10 0.10 0.11 0.11 0.15 0.18 0.16 0.15 0.11 0.08 0.07 0.05 0.07
0.01 0.01 0.00 0.00 0.01 0.02 0.02 0.01 0.01 0.01 0.02 0.02 0.01 0.01 0.01 0.01 0.02 0.02 0.02 0.01 0.01 0.00 0.00 0.00 0.00 0.01 0.02 0.04 0.07 0.12 0.14 0.12 0.10 0.11 0.11 0.12 0.17 0.18 0.18 0.17 0.13 0.10 0.08 0.06
0.01 0.00 0.00 0.00 0.01 0.02 0.02 0.02 0.01 0.01 0.01 0.01 0.01 0.03 0.02 0.01 0.01 0.01 0.01 0.01 0.01 0.01 0.00 0.00 0.00 0.01 0.02 0.03 0.06 0.10 0.14 0.14 0.12 0.14 0.13 0.12 0.13 0.15 0.18 0.21 0.18 0.12 0.09 0.08
0.00 0.00 0.00 0.00 0.01 0.02 0.02 0.02 0.01 0.01 0.01 0.01 0.01 0.03 0.03 0.02 0.01 0.01 0.01 0.01 0.01 0.01 0.01 0.00 0.00 0.01 0.01 0.02 0.04 0.08 0.12 0.16 0.14 0.16 0.17 0.13 0.12 0.11 0.11 0.15 0.19 0.17 0.11 0.09
0.00 0.00 0.01 0.00 0.01 0.02 0.02 0.01 0.01 0.01 0.01 0.02 0.01 0.02 0.03 0.01 0.02 0.02 0.02 0.01 0.01 0.01 0.01 0.01 0.01 0.01 0.01 0.02 0.03 0.06 0.11 0.15 0.15 0.14 0.18 0.16 0.12 0.10 0.09 0.09 0.14 0.20 0.17 0.11
0.00 0.00 0.01 0.01 0.00 0.02 0.02 0.01 0.02 0.02 0.02 0.03 0.02 0.01 0.03 0.03 0.04 0.03 0.02 0.02 0.02 0.01 0.01 0.01 0.01 0.01 0.02 0.02 0.03 0.05 0.09 0.11 0.13 0.12 0.13 0.16 0.13 0.10 0.10 0.08 0.09 0.13 0.19 0.17
0.01 0.00 0.00 0.01 0.00 0.02 0.03 0.04 0.04 0.05 0.05 0.04 0.02 0.01 0.04 0.05 0.04 0.03 0.02 0.02 0.02 0.02 0.01 0.01 0.01 0.01 0.02 0.02 0.03 0.04 0.06 0.09 0.12 0.12 0.10 0.11 0.12 0.11 0.09 0.09 0.08 0.09 0.13 0.16
0.01 0.01 0.00 0.00 0.01 0.02 0.03 0.04 0.04 0.04 0.04 0.03 0.02 0.03 0.05 0.04 0.03 0.03 0.02 0.02 0.02 0.02 0.01 0.01 0.01 0.01 0.02 0.03 0.03 0.03 0.05 0.06 0.10 0.11 0.09 0.09 0.09 0.09 0.08 0.07 0.07 0.08 0.11 0.13
0.01 0.01 0.00 0.01 0.00 0.01 0.03 0.03 0.03 0.03 0.03 0.02 0.03 0.03 0.03 0.02 0.02 0.02 0.01 0.01 0.02 0.02 0.02 0.01 0.01 0.01 0.02 0.03 0.03 0.03 0.03 0.05 0.07 0.11 0.10 0.08 0.08 0.08 0.07 0.05 0.05 0.06 0.08 0.12
0.01 0.01 0.00 0.01 0.00 0.01 0.02 0.02 0.02 0.04 0.03 0.02 0.03 0.03 0.03 0.02 0.02 0.02 0.02 0.01 0.02 0.02 0.01 0.01 0.01 0.01 0.02 0.03 0.03 0.03 0.03 0.03 0.06 0.08 0.11 0.09 0.08 0.08 0.07 0.05 0.04 0.05 0.06 0.08
0.01 0.01 0.01 0.01 0.00 0.01 0.02 0.02 0.03 0.03 0.03 0.03 0.03 0.04 0.03 0.03 0.02 0.02 0.02 0.02 0.01 0.01 0.02 0.02 0.01 0.01 0.02 0.03 0.04 0.04 0.04 0.03 0.05 0.07 0.09 0.10 0.08 0.07 0.07 0.06 0.04 0.04 0.04 0.05
0.02 0.02 0.02 0.01 0.00 0.00 0.01 0.02 0.02 0.03 0.02 0.02 0.03 0.04 0.02 0.02 0.02 0.02 0.02 0.02 0.01 0.01 0.02 0.02 0.02 0.01 0.02 0.03 0.04 0.04 0.04 0.04 0.03 0.05 0.07 0.10 0.08 0.06 0.06 0.06 0.04 0.03 0.03 0.04
0.02 0.03 0.03 0.02 0.01 0.01 0.01 0.01 0.02 0.02 0.02 0.02 0.02 0.03 0.02 0.01 0.01 0.01 0.02 0.02 0.02 0.01 0.01 0.02 0.02 0.02 0.03 0.03 0.03 0.05 0.04 0.04 0.04 0.04 0.06 0.08 0.09 0.08 0.07 0.06 0.05 0.03 0.02 0.03
0.03 0.03 0.02 0.02 0.01 0.01 0.01 0.01 0.01 0.01 0.02 0.02 0.02 0.02 0.01 0.01 0.01 0.01 0.01 0.02 0.02 0.02 0.01 0.02 0.02 0.02 0.02 0.03 0.04 0.05 0.05 0.04 0.04 0.05 0.06 0.07 0.08 0.10 0.09 0.09 0.07 0.05 0.03 0.03
0.02 0.02 0.01 0.01 0.01 0.00 0.01 0.01 0.01 0.01 0.02 0.02 0.02 0.02 0.02 0.02 0.01 0.01 0.01 0.02 0.02 0.02 0.01 0.01 0.03 0.02 0.02 0.03 0.05 0.05 0.05 0.05 0.05 0.05 0.06 0.07 0.07 0.07 0.08 0.10 0.10 0.07 0.05 0.04
0.01 0.02 0.01 0.01 0.01 0.01 0.01 0.01 0.01 0.02 0.02 0.03 0.02 0.02 0.03 0.02 0.01 0.01 0.01 0.01 0.02 0.02 0.02 0.01 0.03 0.04 0.03 0.03 0.05 0.07 0.06 0.05 0.06 0.06 0.06 0.06 0.07 0.08 0.07 0.07 0.09 0.09 0.07 0.06
0.01 0.01 0.01 0.01 0.01 0.01 0.02 0.02 0.02 0.02 0.02 0.02 0.03 0.03 0.02 0.02 0.01 0.02 0.02 0.01 0.02 0.02 0.02 0.01 0.02 0.04 0.04 0.03 0.04 0.06 0.08 0.06 0.06 0.07 0.07 0.06 0.07 0.08 0.08 0.07 0.06 0.08 0.07 0.06
0.01 0.01 0.01 0.01 0.01 0.03 0.02 0.01 0.02 0.02 0.02 0.02 0.02 0.02 0.02 0.02 0.01 0.02 0.02 0.02 0.02 0.02 0.02 0.02 0.02 0.03 0.04 0.04 0.04 0.05 0.08 0.07 0.06 0.07 0.08 0.07 0.06 0.07 0.07 0.08 0.07 0.06 0.06 0.06
0.01 0.02 0.02 0.02 0.02 0.02 0.01 0.01 0.02 0.03 0.03 0.02 0.02 0.01 0.01 0.01 0.01 0.01 0.01 0.02 0.02 0.02 0.02 0.02 0.03 0.03 0.03 0.03 0.04 0.05 0.06 0.08 0.07 0.07 0.07 0.07 0.06 0.07 0.07 0.07 0.07 0.06 0.05 0.05
0.02 0.02 0.03 0.02 0.02 0.02 0.01 0.01 0.01 0.02 0.03 0.02 0.01 0.01 0.01 0.01 0.01 0.01 0.01 0.01 0.02 0.02 0.02 0.02 0.02 0.03 0.03 0.03 0.03 0.04 0.05 0.06 0.07 0.07 0.07 0.07 0.06 0.06 0.07 0.07 0.07 0.06 0.05 0.05
0.02 0.03 0.03 0.03 0.02 0.01 0.01 0.01 0.00 0.01 0.02 0.01 0.01 0.01 0.01 0.02 0.03 0.03 0.02 0.02 0.02 0.02 0.01 0.01 0.02 0.03 0.04 0.04 0.03 0.04 0.05 0.06 0.08 0.07 0.07 0.07 0.06 0.06 0.07 0.07 0.07 0.07 0.06 0.05
0.01 0.01 0.02 0.02 0.02 0.02 0.01 0.01 0.01 0.02 0.01 0.01 0.01 0.01 0.02 0.02 0.02 0.02 0.02 0.02 0.02 0.02 0.01 0.01 0.01 0.02 0.04 0.05 0.04 0.04 0.05 0.06 0.08 0.08 0.07 0.06 0.06 0.07 0.07 0.07 0.07 0.07 0.06 0.05
0.01 0.01 0.01 0.02 0.02 0.02 0.01 0.01 0.02 0.01 0.01 0.01 0.01 0.01 0.01 0.01 0.02 0.02 0.02 0.02 0.02 0.02 0.02 0.02 0.02 0.02 0.03 0.04 0.06 0.06 0.06 0.06 0.07 0.08 0.07 0.06 0.06 0.07 0.08 0.08 0.08 0.08 0.07 0.06
0.01 0.01 0.01 0.01 0.01 0.01 0.01 0.01 0.01 0.01 0.01 0.01 0.01 0.01 0.01 0.02 0.01 0.02 0.02 0.02 0.02 0.02 0.02 0.02 0.02 0.02 0.03 0.04 0.05 0.07 0.07 0.07 0.07 0.09 0.08 0.07 0.07 0.08 0.09 0.10 0.09 0.09 0.09 0.07
0.01 0.00 0.00 0.01 0.01 0.01 0.01 0.01 0.01 0.01 0.00 0.00 0.01 0.01 0.01 0.01 0.01 0.02 0.02 0.02 0.02 0.02 0.03 0.03 0.03 0.03 0.03 0.04 0.05 0.06 0.07 0.07 0.08 0.09 0.10 0.08 0.08 0.08 0.09 0.10 0.10 0.09 0.08 0.08
0.01 0.01 0.01 0.01 0.01 0.01 0.01 0.01 0.01 0.00 0.00 0.00 0.00 0.00 0.00 0.01 0.01 0.01 0.02 0.03 0.02 0.02 0.02 0.02 0.03 0.04 0.04 0.04 0.04 0.05 0.06 0.06 0.07 0.09 0.10 0.11 0.10 0.09 0.09 0.09 0.09 0.10 0.09 0.09
MSLP
1015.96 1016.00 1015.94 1015.65 1015.07 1014.16 1012.96 1011.55 1010.07 1008.65 1007.43 1006.47 1005.83 1005.50 1005.43 1005.54 1005.74 1005.98 1006.19 1006.36 1006.47 1006.55 1006.61 1006.69 1006.80 1006.96 1007.18 1007.48 1007.88 1008.40 1009.05 1009.83 1010.72 1011.70 1012.71 1013.69 1014.60 1015.38 1016.00 1016.47 1016.83 1017.12 1017.39 1017.70
1016.68 1016.60 1016.34 1015.80 1014.94 1013.77 1012.37 1010.87 1009.40 1008.12 1007.14 1006.51 1006.25 1006.30 1006.58 1006.99 1007.42 1007.79 1008.04 1008.16 1008.16 1008.08 1007.95 1007.80 1007.69 1007.63 1007.65 1007.77 1008.02 1008.40 1008.96 1009.67 1010.53 1011.51 1012.55 1013.59 1014.56 1015.40 1016.08 1016.60 1016.98 1017.28 1017.54 1017.83
1017.47 1017.21 1016.70 1015.87 1014.71 1013.30 1011.74 1010.19 1008.83 1007.79 1007.16 1006.96 1007.16 1007.66 1008.33 1009.04 1009.66 1010.11 1010.33 1010.34 1010.17 1009.87 1009.50 1009.12 1008.79 1008.52 1008.35 1008.30 1008.39 1008.64 1009.08 1009.70 1010.49 1011.42 1012.44 1013.49 1014.49 1015.38 1016.12 1016.69 1017.12 1017.44 1017.71 1017.99
1018.31 1017.82 1017.03 1015.90 1014.47 1012.86 1011.21 1009.71 1008.54 1007.83 1007.62 1007.91 1008.60 1009.56 1010.61 1011.58 1012.33 1012.79 1012.92 1012.76 1012.36 1011.81 1011.19 1010.58 1010.04 1009.59 1009.27 1009.08 1009.03 1009.15 1009.46 1009.94 1010.62 1011.45 1012.40 1013.41 1014.41 1015.33 1016.11 1016.74 1017.21 1017.57 1017.86 1018.14
1019.18 1018.45 1017.39 1015.99 1014.35 1012.60 1010.94 1009.56 1008.66 1008.32 1008.57 1009.35 1010.52 1011.88 1013.24 1014.40 1015.21 1015.61 1015.59 1015.21 1014.56 1013.75 1012.90 1012.09 1011.38 1010.80 1010.37 1010.07 1009.92 1009.91 1010.07 1010.41 1010.92 1011.61 1012.44 1013.37 1014.31 1015.22 1016.03 1016.71 1017.24 1017.66 1017.98 1018.28
1020.10 1019.15 1017.85 1016.24 1014.45 1012.66 1011.06 1009.87 1009.27 1009.31 1010.00 1011.21 1012.77 1014.46 1016.03 1017.28 1018.07 1018.35 1018.13 1017.51 1016.61 1015.57 1014.52 1013.56 1012.74 1012.08 1011.58 1011.22 1010.98 1010.86 1010.87 1011.04 1011.37 1011.88 1012.54 1013.34 1014.20 1015.08 1015.89 1016.61 1017.20 1017.67 1018.05 1018.38
1021.10 1019.96 1018.49 1016.76 1014.91 1013.14 1011.67 1010.71 1010.40 1010.79 1011.83 1013.37 1015.21 1017.09 1018.76 1020.00 1020.69 1020.80 1020.37 1019.51 1018.40 1017.17 1015.98 1014.92 1014.05 1013.36 1012.84 1012.44 1012.13 1011.91 1011.78 1011.76 1011.89 1012.19 1012.67 1013.31 1014.06 1014.88 1015.69 1016.44 1017.09 1017.63 1018.07 1018.44
1022.18 1020.92 1019.35 1017.59 1015.78 1014.11 1012.81 1012.08 1012.03 1012.69 1013.97 1015.71 1017.68 1019.61 1021.25 1022.38 1022.92 1022.83 1022.20 1021.15 1019.87 1018.52 1017.25 1016.16 1015.29 1014.61 1014.09 1013.67 1013.31 1012.99 1012.72 1012.52 1012.44 1012.53 1012.80 1013.27 1013.91 1014.65 1015.45 1016.22 1016.92 1017.53 1018.03 1018.45
1023.32 1022.02 1020.47 1018.76 1017.07 1015.57 1014.48 1013.95 1014.11 1014.93 1016.33 1018.12 1020.06 1021.90 1023.40 1024.36 1024.69 1024.41 1023.61 1022.42 1021.05 1019.65 1018.37 1017.29 1016.45 1015.81 1015.30 1014.88 1014.46 1014.05 1013.63 1013.25 1012.97 1012.85 1012.94 1013.24 1013.74 1014.41 1015.18 1015.96 1016.71 1017.38 1017.95 1018.43
1024.48 1023.23 1021.79 1020.24 1018.75 1017.47 1016.59 1016.25 1016.54 1017.42 1018.80 1020.50 1022.29 1023.93 1025.20 1025.93 1026.06 1025.60 1024.67 1023.42 1022.01 1020.63 1019.39 1018.38 1017.58 1016.98 1016.49 1016.04 1015.57 1015.06 1014.50 1013.95 1013.49 1013.18 1013.08 1013.22 1013.60 1014.18 1014.91 1015.69 1016.47 1017.19 1017.82 1018.35
1025.59 1024.49 1023.24 1021.94 1020.71 1019.69 1019.03 1018.85 1019.21 1020.06 1021.33 1022.82 1024.36 1025.71 1026.70 1027.18 1027.11 1026.52 1025.52 1024.26 1022.90 1021.58 1020.43 1019.49 1018.75 1018.18 1017.69 1017.20 1016.66 1016.03 1015.34 1014.64 1014.01 1013.52 1013.26 1013.25 1013.50 1014.00 1014.66 1015.43 1016.22 1016.96 1017.63 1018.21
1026.60 1025.71 1024.74 1023.74 1022.82 1022.08 1021.65 1021.60 1021.98 1022.75 1023.82 1025.05 1026.27 1027.30 1027.99 1028.22 1027.99 1027.32 1026.31 1025.09 1023.81 1022.60 1021.55 1020.69 1020.00 1019.44 1018.93 1018.38 1017.75 1017.02 1016.20 1015.35 1014.57 1013.93 1013.51 1013.35 1013.48 1013.87 1014.46 1015.18 1015.95 1016.70 1017.40 1018.00
1027.46 1026.84 1026.17 1025.51 1024.92 1024.47 1024.25 1024.32 1024.70 1025.35 1026.21 1027.15 1028.04 1028.75 1029.16 1029.18 1028.81 1028.10 1027.12 1025.99 1024.83 1023.74 1022.79 1022.00 1021.35 1020.78 1020.22 1019.60 1018.88 1018.04 1017.10 1016.13 1015.21 1014.43 1013.86 1013.56 1013.55 1013.82 1014.31 1014.95 1015.67 1016.41 1017.11 1017.74
1028.18 1027.82 1027.46 1027.13 1026.86 1026.70 1026.68 1026.86 1027.22 1027.76 1028.40 1029.07 1029.66 1030.08 1030.24 1030.10 1029.64 1028.92 1028.00 1026.98 1025.95 1024.98 1024.13 1023.40 1022.76 1022.17 1021.55 1020.86 1020.04 1019.10 1018.05 1016.97 1015.93 1015.03 1014.32 1013.88 1013.72 1013.83 1014.19 1014.73 1015.38 1016.08 1016.77 1017.43
1028.76 1028.64 1028.56 1028.52 1028.54 1028.62 1028.79 1029.05 1029.41 1029.84 1030.30 1030.74 1031.08 1031.26 1031.24 1030.97 1030.47 1029.77 1028.93 1028.02 1027.11 1026.25 1025.48 1024.79 1024.16 1023.54 1022.87 1022.10 1021.20 1020.18 1019.05 1017.89 1016.75 1015.72 1014.88 1014.29 1013.96 1013.91 1014.12 1014.53 1015.08 1015.72 1016.41 1017.08
1029.25 1029.31 1029.44 1029.63 1029.87 1030.14 1030.45 1030.79 1031.14 1031.50 1031.82 1032.09 1032.24 1032.26 1032.10 1031.75 1031.24 1030.58 1029.82 1029.02 1028.21 1027.45 1026.75 1026.09 1025.46 1024.81 1024.09 1023.27 1022.33 1021.25 1020.07 1018.84 1017.62 1016.49 1015.53 1014.77 1014.28 1014.05 1014.08 1014.35 1014.79 1015.37 1016.03 1016.73
1029.71 1029.87 1030.13 1030.45 1030.83 1031.22 1031.62 1032.01 1032.36 1032.67 1032.90 1033.05 1033.08 1032.99 1032.76 1032.38 1031.88 1031.27 1030.60 1029.89 1029.17 1028.49 1027.83 1027.20 1026.57 1025.91 1025.17 1024.33 1023.36 1022.27 1021.07 1019.80 1018.53 1017.32 1016.23 1015.33 1014.66 1014.25 1014.10 1014.21 1014.53 1015.03 1015.67 1016.39
1030.18 1030.36 1030.64 1031.01 1031.43 1031.87 1032.31 1032.71 1033.05 1033.32 1033.51 1033.59 1033.57 1033.43 1033.18 1032.81 1032.34 1031.79 1031.19 1030.56 1029.92 1029.29 1028.68 1028.07 1027.46 1026.80 1026.07 1025.24 1024.29 1023.21 1022.02 1020.75 1019.45 1018.17 1016.98 1015.94 1015.10 1014.52 1014.19 1014.14 1014.34 1014.76 1015.36 1016.09
1030.69 1030.81 1031.04 1031.36 1031.75 1032.16 1032.57 1032.96 1033.28 1033.53 1033.69 1033.76 1033.73 1033.59 1033.36 1033.02 1032.61 1032.13 1031.60 1031.03 1030.46 1029.88 1029.31 1028.73 1028.14 1027.51 1026.81 1026.02 1025.11 1024.08 1022.93 1021.68 1020.36 1019.05 1017.78 1016.62 1015.64 1014.88 1014.39 1014.18 1014.25 1014.58 1015.13 1015.85
1031.24 1031.25 1031.37 1031.58 1031.87 1032.20 1032.54 1032.88 1033.17 1033.41 1033.57 1033.64 1033.63 1033.54 1033.35 1033.08 1032.74 1032.33 1031.87 1031.37 1030.85 1030.32 1029.79 1029.24 1028.69 1028.09 1027.44 1026.70 1025.86 1024.89 1023.80 1022.59 1021.29 1019.96 1018.63 1017.38 1016.28 1015.37 1014.73 1014.37 1014.30 1014.52 1014.99 1015.67
1031.80 1031.69 1031.67 1031.74 1031.89 1032.10 1032.36 1032.62 1032.87 1033.09 1033.26 1033.37 1033.41 1033.38 1033.26 1033.07 1032.81 1032.48 1032.09 1031.66 1031.20 1030.71 1030.22 1029.71 1029.19 1028.64 1028.04 1027.37 1026.59 1025.70 1024.67 1023.51 1022.25 1020.91 1019.55 1018.24 1017.03 1016.01 1015.23 1014.72 1014.51 1014.60 1014.96 1015.56
1032.35 1032.12 1031.96 1031.89 1031.90 1031.99 1032.15 1032.33 1032.54 1032.75 1032.93 1033.08 1033.18 1033.22 1033.20 1033.10 1032.93 1032.68 1032.37 1032.01 1031.60 1031.16 1030.71 1030.24 1029.75 1029.24 1028.69 1028.07 1027.35 1026.52 1025.56 1024.45 1023.23 1021.91 1020.54 1019.19 1017.92 1016.79 1015.89 1015.24 1014.89 1014.83 1015.05 1015.52
1032.84 1032.53 1032.27 1032.08 1031.98 1031.96 1032.02 1032.14 1032.31 1032.50 1032.70 1032.89 1033.06 1033.18 1033.25 1033.24 1033.17 1033.01 1032.78 1032.48 1032.13 1031.74 1031.32 1030.88 1030.42 1029.93 1029.41 1028.83 1028.16 1027.38 1026.47 1025.42 1024.23 1022.94 1021.59 1020.22 1018.91 1017.71 1016.71 1015.94 1015.43 1015.22 1015.28 1015.58
1033.26 1032.91 1032.59 1032.33 1032.15 1032.06 1032.05 1032.12 1032.25 1032.44 1032.66 1032.89 1033.11 1033.31 1033.46 1033.55 1033.57 1033.49 1033.34 1033.11 1032.81 1032.46 1032.06 1031.64 1031.19 1030.72 1030.20 1029.63 1028.99 1028.24 1027.37 1026.37 1025.23 1023.99 1022.66 1021.31 1019.98 1018.74 1017.66 1016.78 1016.14 1015.76 1015.64 1015.76
1033.58 1033.24 1032.92 1032.64 1032.43 1032.30 1032.25 1032.29 1032.41 1032.59 1032.82 1033.09 1033.36 1033.62 1033.85 1034.01 1034.11 1034.12 1034.03 1033.86 1033.61 1033.28 1032.91 1032.48 1032.03 1031.54 1031.02 1030.45 1029.80 1029.07 1028.23 1027.27 1026.19 1024.99 1023.72 1022.40 1021.09 1019.85 1018.72 1017.76 1017.00 1016.47 1016.17 1016.10
1033.80 1033.51 1033.23 1032.98 1032.78 1032.65 1032.60 1032.63 1032.74 1032.93 1033.17 1033.46 1033.77 1034.07 1034.35 1034.58 1034.73 1034.80 1034.77 1034.65 1034.42 1034.12 1033.75 1033.32 1032.85 1032.33 1031.79 1031.19 1030.54 1029.82 1029.00 1028.08 1027.05 1025.93 1024.73 1023.47 1022.21 1020.99 1019.85 1018.84 1018.00 1017.34 1016.89 1016.65
Thickness
5485 5476 5472 5475 5478 5480 5479 5479 5480 5490 5499 5498 5497 5499 5502 5506 5508 5510 5512 5516 5522 5529 5537 5544 5551 5558 5565 5572 5578 5583 5587 5591 5596 5601 5606 5610 5612 5616 5620 5623 5626 5628 5631 5633
5466 5461 5470 5472 5471 5471 5469 5467 5466 5477 5486 5487 5483 5483 5486 5490 5490 5490 5493 5496 5502 5511 5520 5528 5535 5543 5550 5558 5565 5572 5576 5581 5586 5591 5596 5601 5604 5607 5610 5614 5617 5620 5623 5625
5453 5457 5465 5464 5460 5459 5457 5454 5457 5462 5470 5473 5470 5466 5469 5473 5474 5476 5477 5480 5486 5494 5503 5512 5520 5528 5536 5544 5552 5560 5565 5570 5575 5580 5585 5590 5593 5595 5598 5603 5607 5611 5614 5616
5443 5449 5452 5451 5448 5447 5445 5451 5453 5454 5448 5443 5454 5443 5451 5454 5456 5459 5460 5463 5469 5476 5485 5496 5505 5514 5522 5530 5538 5546 5553 5559 5564 5570 5574 5579 5583 5586 5590 5594 5597 5601 5605 5607
5432 5437 5437 5437 5438 5438 5437 5443 5442 5442 5435 5430 5434 5429 5429 5432 5434 5438 5443 5448 5454 5461 5470 5479 5489 5499 5508 5516 5524 5532 5540 5547 5552 5558 5563 5568 5572 5576 5580 5583 5587 5590 5594 5597
5426 5431 5428 5428 5432 5431 5430 5429 5429 5424 5420 5413 5419 5417 5412 5412 5418 5423 5429 5434 5440 5447 5455 5465 5474 5483 5493 5502 5510 5519 5527 5534 5540 5545 5550 5555 5559 5564 5569 5573 5576 5579 5582 5587
5410 5416 5417 5419 5417 5418 5412 5403 5400 5399 5395 5403 5412 5406 5396 5399 5405 5411 5416 5422 5427 5434 5441 5450 5459 5469 5478 5487 5496 5504 5513 5520 5527 5533 5538 5543 5546 5553 5558 5562 5566 5569 5573 5576
5385 5391 5401 5402 5402 5398 5397 5391 5384 5382 5383 5388 5396 5389 5382 5387 5394 5400 5405 5409 5415 5421 5428 5436 5444 5452 5463 5473 5481 5490 5499 5506 5513 5520 5526 5531 5535 5541 5547 5552 5556 5560 5564 5568
5370 5380 5392 5394 5393 5391 5386 5379 5379 5370 5370 5370 5374 5369 5374 5381 5384 5388 5392 5398 5402 5408 5416 5423 5431 5440 5449 5459 5467 5476 5486 5493 5500 5506 5512 5518 5523 5529 5535 5539 5544 5549 5553 5557
5360 5362 5375 5381 5384 5381 5377 5371 5360 5357 5359 5365 5364 5358 5359 5360 5367 5373 5376 5382 5389 5395 5402 5410 5418 5427 5436 5444 5453 5463 5472 5481 5488 5494 5499 5506 5511 5517 5522 5527 5532 5537 5542 5546
5353 5347 5356 5361 5359 5358 5359 5357 5350 5346 5348 5350 5352 5349 5353 5350 5355 5359 5364 5371 5376 5382 5388 5396 5405 5413 5422 5431 5440 5449 5459 5468 5475 5481 5487 5493 5498 5504 5510 5515 5520 5525 5530 5535
5344 5334 5334 5342 5348 5351 5348 5342 5337 5335 5332 5334 5335 5337 5344 5343 5345 5350 5353 5360 5366 5371 5377 5384 5392 5400 5409 5417 5426 5435 5444 5452 5461 5468 5475 5481 5487 5493 5498 5503 5509 5513 5518 5523
5337 5322 5318 5328 5334 5333 5332 5331 5328 5324 5322 5321 5323 5329 5336 5333 5336 5339 5343 5347 5354 5360 5366 5373 5380 5388 5396 5404 5412 5421 5429 5438 5447 5455 5462 5469 5476 5482 5487 5492 5497 5502 5507 5512
5334 5313 5307 5311 5319 5315 5314 5318 5319 5316 5310 5312 5316 5320 5324 5322 5324 5327 5330 5335 5340 5347 5354 5361 5368 5374 5382 5390 5399 5408 5416 5425 5434 5442 5450 5457 5464 5470 5476 5481 5485 5491 5497 5501
5320 5305 5302 5303 5309 5309 5307 5309 5311 5307 5306 5304 5308 5309 5310 5309 5311 5314 5319 5324 5330 5336 5342 5348 5355 5362 5370 5378 5387 5396 5404 5413 5421 5429 5438 5445 5452 5458 5465 5469 5474 5479 5485 5490
5307 5298 5297 5298 5306 5305 5301 5301 5301 5300 5298 5296 5299 5298 5298 5299 5301 5304 5308 5313 5318 5323 5329 5336 5342 5350 5357 5365 5374 5383 5391 5400 5408 5416 5425 5433 5440 5446 5452 5458 5463 5467 5473 5478
5297 5291 5289 5288 5292 5293 5284 5284 5284 5285 5284 5285 5285 5285 5286 5289 5293 5294 5297 5302 5306 5312 5318 5324 5330 5337 5344 5353 5361 5370 5378 5387 5396 5404 5412 5421 5429 5435 5441 5446 5451 5457 5462 5466
5289 5285 5278 5277 5275 5270 5277 5278 5277 5276 5274 5273 5275 5275 5276 5279 5282 5285 5288 5290 5295 5301 5307 5314 5320 5327 5334 5342 5350 5358 5366 5375 5384 5393 5400 5408 5416 5423 5430 5435 5440 5446 5451 5454
5287 5282 5272 5267 5260 5265 5273 5272 5267 5266 5264 5260 5262 5266 5270 5273 5277 5280 5283 5283 5286 5291 5297 5303 5310 5317 5324 5332 5340 5347 5355 5364 5372 5381 5388 5396 5404 5412 5418 5424 5430 5435 5439 5443
5280 5273 5267 5258 5258 5259 5263 5263 5263 5260 5256 5255 5254 5256 5260 5264 5265 5269 5273 5275 5279 5284 5289 5295 5301 5308 5315 5322 5329 5337 5344 5352 5360 5369 5377 5385 5393 5400 5407 5414 5419 5424 5428 5432
5264 5257 5251 5248 5245 5248 5251 5254 5259 5251 5249 5247 5247 5248 5249 5249 5251 5257 5262 5266 5270 5275 5280 5286 5292 5298 5305 5311 5318 5325 5332 5340 5348 5357 5366 5375 5383 5390 5397 5403 5408 5412 5417 5421
5251 5246 5239 5238 5236 5241 5246 5246 5241 5237 5238 5238 5239 5240 5241 5243 5247 5251 5254 5258 5262 5266 5271 5277 5283 5289 5295 5302 5308 5315 5321 5329 5338 5346 5355 5364 5372 5379 5386 5392 5397 5402 5406 5409
5244 5242 5238 5236 5240 5240 5237 5235 5233 5231 5230 5230 5230 5232 5233 5236 5239 5243 5246 5249 5253 5257 5262 5268 5273 5279 5286 5291 5297 5304 5311 5318 5327 5336 5344 5352 5360 5367 5374 5380 5386 5391 5395 5398
5238 5235 5234 5232 5234 5231 5230 5228 5226 5225 5223 5223 5223 5224 5226 5227 5230 5233 5238 5242 5245 5249 5254 5259 5264 5270 5275 5281 5286 5292 5301 5309 5317 5325 5333 5341 5348 5356 5362 5368 5374 5379 5383 5388
5230 5226 5225 5224 5224 5224 5226 5222 5220 5218 5218 5218 5217 5217 5219 5220 5223 5226 5229 5233 5236 5241 5245 5250 5254 5260 5265 5271 5277 5283 5291 5299 5307 5315 5322 5330 5337 5344 5351 5356 5360 5365 5370 5375
5220 5218 5216 5220 5219 5215 5216 5215 5213 5211 5211 5210 5210 5211 5212 5213 5216 5219 5221 5224 5228 5232 5236 5241 5245 5251 5256 5262 5268 5274 5282 5289 5296 5304 5311 5318 5325 5332 5338 5343 5347 5351 5356 5362